Cloud_Cover
100 100 100 100 100 65 19 5 10 89 100 86 22 38 20 15 0 0 0 0 0 0 0 0 5 44 51 100 100 100 100 91 84 100 100 91 93 100 15 0 0 0 0 0 0
100 100 100 100 100 100 71 4 23 7 68 100 71 18 29 18 10 0 0 0 0 0 0 0 3 5 37 99 93 99 100 94 100 100 100 100 76 88 39 30 0 0 0 0 0
100 100 100 100 100 100 98 55 100 100 34 56 100 35 20 23 0 0 0 0 0 0 0 0 0 5 5 75 10 77 100 100 100 100 100 100 75 98 72 66 9 5 0 0 5
100 100 100 100 100 100 100 100 100 100 91 15 18 90 15 17 0 0 0 0 2 0 0 0 0 0 5 5 11 100 100 100 100 100 100 99 96 96 96 74 43 5 1 0 0
23 74 100 100 100 100 100 100 100 100 100 61 2 96 3 0 0 0 0 0 2 0 0 0 0 2 5 6 5 100 100 100 100 98 100 100 100 100 100 100 14 23 83 1 4
100 100 100 100 100 100 100 100 100 100 100 83 58 1 1 0 0 0 0 0 0 0 0 0 0 0 4 5 37 100 100 100 100 100 100 100 100 100 100 100 24 26 26 71 0
100 100 100 100 100 100 100 100 100 100 100 100 100 0 0 0 0 0 0 0 0 0 1 0 0 0 0 5 24 100 100 100 100 100 100 100 100 100 100 98 100 28 7 68 5
100 100 100 100 100 100 100 61 38 70 100 100 96 1 0 0 0 0 0 0 0 0 0 0 33 86 6 0 10 100 100 100 100 100 100 100 100 100 100 100 100 37 5 1 0
100 100 100 100 98 83 10 20 22 19 80 84 4 0 0 0 0 0 0 0 0 0 0 0 1 86 0 0 15 98 96 100 100 100 100 100 100 100 100 100 94 97 18 12 0
100 100 100 100 100 94 32 2 0 0 1 0 0 0 0 0 0 0 0 0 0 0 0 0 11 16 0 0 6 45 87 100 100 98 100 100 100 100 100 100 99 100 81 8 28
100 100 100 100 100 100 24 0 0 0 0 0 0 0 0 0 0 0 0 0 0 0 0 0 0 0 0 0 0 0 66 98 100 100 100 100 100 100 100 98 100 100 46 5 5
37 100 100 100 100 100 71 0 0 0 0 0 0 0 0 0 0 0 0 0 0 0 0 0 0 0 0 0 1 1 100 95 100 100 100 100 100 100 100 100 100 100 100 29 7
23 48 100 90 94 60 4 17 4 2 0 0 0 0 0 0 0 0 0 0 0 0 0 0 0 0 0 0 0 4 100 100 100 100 100 100 100 100 100 100 100 100 100 98 82
2 25 100 22 35 90 100 99 98 96 11 1 0 0 0 0 0 0 0 0 0 0 0 0 0 0 0 0 0 1 71 100 100 100 100 100 100 100 100 100 100 100 100 100 34
20 99 57 98 100 100 100 100 100 100 78 6 3 0 0 0 0 0 0 0 0 0 0 0 0 0 0 0 0 2 100 96 88 78 58 100 99 100 100 100 100 100 82 100 65
5 10 94 94 100 100 100 100 100 100 100 100 99 23 0 0 0 0 0 0 0 0 0 0 0 0 0 0 0 66 100 61 31 13 36 76 100 100 85 100 100 100 74 92 100
2 95 90 91 90 100 100 100 86 100 100 100 96 85 5 0 0 5 1 1 0 0 0 0 0 0 0 0 0 0 89 46 64 15 5 5 100 100 100 98 100 100 91 100 86
14 100 98 55 100 100 100 59 17 5 43 100 100 100 98 5 0 1 5 5 0 0 0 0 0 0 0 0 0 0 9 4 59 3 2 58 43 100 100 100 83 100 100 100 82
7 100 21 100 100 100 72 76 100 93 5 62 89 100 100 86 4 37 73 100 4 5 0 0 0 0 0 0 0 0 0 2 80 12 0 3 1 85 100 100 96 100 100 100 100
6 100 23 100 100 26 99 91 61 25 2 2 6 15 60 100 88 5 100 100 100 5 5 0 0 0 0 0 0 0 0 0 5 5 0 0 1 1 100 100 62 100 100 100 99
19 97 67 40 27 96 95 79 5 5 2 3 4 1 1 5 5 1 99 100 83 89 5 0 0 0 0 0 0 0 0 0 28 5 0 0 1 19 44 100 100 100 100 98 100
5 91 82 0 5 5 5 0 0 0 0 1 0 0 0 0 3 5 2 100 78 95 80 5 0 0 0 0 0 0 0 0 5 25 0 0 54 99 98 100 100 100 100 100 100
5 74 97 5 4 5 3 29 5 16 18 98 13 5 4 0 1 0 0 15 94 28 100 76 5 0 0 0 0 0 0 0 4 5 3 4 27 96 100 100 93 100 100 100 100
2 66 29 19 4 5 0 4 15 100 8 7 53 5 29 6 4 5 0 0 8 21 39 100 17 74 3 0 0 0 0 0 0 5 0 4 37 100 98 97 100 100 100 100 100
6 38 7 22 4 0 0 0 0 2 0 5 15 76 20 42 17 5 6 4 0 45 100 100 100 100 70 3 0 5 0 0 0 0 0 0 5 24 63 100 100 64 100 100 100
31 100 30 5 4 5 0 5 0 5 2 83 95 6 100 85 100 79 84 48 35 98 100 100 100 100 100 33 4 46 3 0 3 0 0 3 5 5 7 9 61 42 100 100 100
5 72 19 5 5 4 1 0 0 0 0 6 74 77 74 98 100 100 100 90 76 100 100 100 100 100 100 100 99 16 100 54 97 46 26 28 8 40 52 100 100 100 50 99 100